Location: Monroe
(41.9160°N, 83.3980°W)
Time: 06:21:53
(UTC-04:00)

ISS - All Passes

Search period start: 30 September 2014 00:00
Search period end: 10 October 2014 00:00
Orbit: 413 x 416 km, 51.6° (Epoch: 30 September)

Date Brightness Start Highest point End Pass type
(mag) Time Alt. Az. Time Alt. Az. Time Alt. Az.
30 Sep - 00:00:00 16° NE 23:59:45 18° NE 00:00:44 10° NE night (unlit)
30 Sep - 01:31:51 10° WNW 01:34:28 21° NNW 01:37:05 10° NE night (unlit)
30 Sep - 03:09:58 10° NW 03:12:05 16° N 03:14:11 10° NE night (unlit)
30 Sep - 04:46:31 10° NW 04:49:32 31° NNE 04:52:33 10° E visible
30 Sep - 06:23:09 10° WNW 06:26:17 39° SW 06:29:24 10° SSE visible
30 Sep - 23:05:06 10° SW 23:08:21 53° SE 23:11:36 10° ENE night (unlit)
01 Oct - 00:42:19 10° W 00:45:12 27° NNW 00:48:06 10° NE night (unlit)
01 Oct - 02:20:40 10° NW 02:22:44 15° N 02:24:48 10° NE night (unlit)
01 Oct - 03:57:33 10° NW 04:00:18 23° NNE 04:03:03 10° ENE visible
01 Oct - 05:33:57 10° WNW 05:37:16 71° SW 05:40:34 10° SE visible
01 Oct - 22:16:24 10° SSW 22:19:20 30° SE 22:22:18 10° ENE night (unlit)
01 Oct - 23:52:51 10° W 23:55:59 37° NNW 23:59:07 10° NE night (unlit)
02 Oct - 01:31:11 10° NW 01:33:22 16° N 01:35:33 10° NE night (unlit)
02 Oct - 03:08:31 10° NW 03:11:00 19° NNE 03:13:28 10° ENE night (unlit)
02 Oct - 04:44:51 10° NW 04:48:10 67° NNE 04:51:28 10° ESE visible
02 Oct - 06:22:33 10° W 06:24:30 15° SW 06:26:27 10° SSW visible
02 Oct - 21:28:06 10° S 21:30:23 17° SE 21:32:40 10° E night (unlit)
02 Oct - 23:03:30 10° WSW 23:06:47 58° NNW 23:10:04 10° NE night (unlit)
03 Oct - 00:41:36 10° WNW 00:44:00 18° NNW 00:46:24 10° NE night (unlit)
03 Oct - 02:19:24 10° NW 02:21:38 17° N 02:23:52 10° NE night (unlit)
03 Oct - 03:55:48 10° NW 03:58:59 41° NNE 04:02:09 10° E night (unlit)
03 Oct - 05:32:44 10° WNW 05:35:33 25° SW 05:38:21 10° SSE visible
03 Oct - 22:14:18 10° SW 22:17:37 83° SE 22:20:57 10° ENE night (unlit)
03 Oct - 23:51:58 10° WNW 23:54:38 22° NNW 23:57:19 10° NE night (unlit)
04 Oct - 01:30:09 10° NW 01:32:14 15° N 01:34:19 10° NE night (unlit)
04 Oct - 03:06:45 10° NW 03:09:43 29° NNE 03:12:40 10° E night (unlit)
04 Oct - 04:43:19 10° WNW 04:46:31 45° SW 04:49:42 10° SSE night (unlit)
04 Oct - 21:25:18 10° SW 21:28:30 46° SE 21:31:42 10° ENE visible
04 Oct - 23:02:21 10° W 23:05:18 29° NNW 23:08:16 10° NE night (unlit)
05 Oct - 00:40:42 10° NW 00:42:47 15° N 00:44:52 10° NE night (unlit)
05 Oct - 02:17:41 10° NW 02:20:23 22° NNE 02:23:04 10° ENE night (unlit)
05 Oct - 03:54:03 10° WNW 03:57:23 82° SW 04:00:42 10° SE night (unlit)
05 Oct - 20:36:36 10° SSW 20:39:25 26° SE 20:42:15 10° ENE visible
05 Oct - 22:12:49 10° W 22:16:00 41° NNW 22:19:10 10° NE visible
05 Oct - 23:51:07 10° NW 23:53:20 17° N 23:55:34 10° NE night (unlit)
06 Oct - 01:28:33 10° NW 01:30:58 18° NNE 01:33:23 10° ENE night (unlit)
06 Oct - 03:04:53 10° NW 03:08:11 59° NNE 03:11:28 10° ESE night (unlit)
06 Oct - 04:42:19 10° W 04:44:34 17° SW 04:46:48 10° S night (unlit)
06 Oct - 19:48:23 10° SSE 19:50:23 15° SE 19:52:23 10° E visible
06 Oct - 21:23:25 10° WSW 21:26:43 66° NNW 21:30:02 10° NE visible
06 Oct - 23:01:25 10° WNW 23:03:53 19° NNW 23:06:21 10° NE night (unlit)
07 Oct - 00:39:19 10° NW 00:41:30 16° N 00:43:41 10° NE night (unlit)
07 Oct - 02:15:45 10° NW 02:18:53 37° NNE 02:22:01 10° E night (unlit)
07 Oct - 03:52:34 10° WNW 03:55:30 29° SW 03:58:26 10° SSE night (unlit)
07 Oct - 20:34:10 10° SW 20:37:29 72° SE 20:40:48 10° ENE visible
07 Oct - 22:11:41 10° WNW 22:14:27 23° NNW 22:17:12 10° NE visible
07 Oct - 23:49:56 10° NW 23:52:00 15° N 23:54:04 10° NE night (unlit)
08 Oct - 01:26:37 10° NW 01:29:31 27° NNE 01:32:24 10° E night (unlit)
08 Oct - 03:03:07 10° WNW 03:06:22 53° SW 03:09:36 10° SE night (unlit)
08 Oct - 19:45:09 10° SSW 19:48:17 39° SE 19:51:26 10° ENE visible
08 Oct - 21:22:00 10° W 21:25:01 31° NNW 21:28:03 10° NE visible
08 Oct - 23:00:22 10° NW 23:02:28 16° N 23:04:35 10° NE night (unlit)
09 Oct - 00:37:27 10° NW 00:40:04 21° NNE 00:42:41 10° ENE night (unlit)
09 Oct - 02:13:48 10° NW 02:17:08 87° NE 02:20:27 10° SE night (unlit)
09 Oct - 03:52:19 10° WSW 03:53:20 11° SW 03:54:22 10° SSW night (unlit)
09 Oct - 18:56:28 10° S 18:59:08 23° SE 19:01:49 10° E daylight
09 Oct - 20:32:25 10° WSW 20:35:38 46° NNW 20:38:52 10° NE visible
09 Oct - 22:10:39 10° NW 22:12:56 17° N 22:15:13 10° NNE visible
09 Oct - 23:48:13 10° NW 23:50:34 18° N 23:52:54 10° NE night (unlit)
